Location: �chenoz-la-M�line
(47.6009°N, 6.1354°E)
Time: 04:31:32
(UTC+00:00)

NOSS 3-2 (A) - Pass Details

Date: 27 January 2021
Orbit: 783 x 1425 km, 63.4° (Epoch: 25 February)

Event Time Altitude Azimuth Distance (km) Brightness Sun altitude
Exits shadow 05:00:35 17° 212° (SSW) 2,037 4.9 -21.4°
Maximum altitude 05:05:06 80° 128° (SE) 928 3.4 -20.7°
Drops below altitude 10° 05:11:37 10° 42° (NE) 2,819 6.4 -19.6°
Sets 05:14:26 0° 41° (NE) 3,876 7.1 -19.1°
